Miscellaneous Local Product
Issued by NWS Hastings, NE

Home | Current Version | Previous Version | Text Only | Print | Product List | Glossary On
Versions: 1 2 3 4 5 6 7 8 9 10 11 12 13 14 15 16 17 18 19 20 21 22 23 24 25 26 27 28 29 30 31 32 33 34 35 36 37 38 39 40 41 42 43 44 45 46 47 48 49 50
000
AXUS43 KGID 240902
MISGRI

GID CWA HOURLY WEATHER ROUNDUP
NATIONAL WEATHER SERVICE HASTINGS NE
300 AM CST MON NOV 24 2014

NOTE: "FAIR" INDICATES FEW OR NO CLOUDS BELOW 12,000 FEET WITH NO
SIGNIFICANT WEATHER AND/OR OBSTRUCTIONS TO VISIBILITY.

...SOUTH CENTRAL NEBRASKA...

CITY           SKY/WX    TMP DP  RH WIND       PRES   REMARKS
GRAND ISLAND   CLEAR     31  20  63 NW21G28   29.63S WCI  18
HASTINGS       PTCLDY    33  22  63 NW13      29.63R WCI  24
KEARNEY        CLOUDY    32  21  64 W10       29.66S WCI  24
ORD            CLEAR     28  18  66 NW20G28   29.63R WCI  15
YORK           CLEAR     28  23  80 NW16      29.61R WCI  17
AURORA         CLEAR     30  21  69 NW13      29.61S WCI  20
LEXINGTON      CLOUDY    33  21  61 NW16      29.67R WCI  22
HOLDREGE       MOCLDY    32  20  61 W14       29.66R WCI  22
HEBRON         CLEAR     32  24  71 NW12      29.64R WCI  23

...NEBRASKA PANHANDLE...

CITY           SKY/WX    TMP DP  RH WIND       PRES   REMARKS
CHADRON        CLEAR     26  18  71 W15       29.78R WCI  14
ALLIANCE       CLEAR     26  16  65 W17       29.75R WCI  13
SCOTTSBLUFF    CLEAR     24  16  71 NW12      29.81R WCI  13
SIDNEY         CLEAR     27  14  58 NW17      29.79R WCI  14

...WESTERN AND NORTH CENTRAL NEBRASKA...

CITY           SKY/WX    TMP DP  RH WIND       PRES   REMARKS
VALENTINE      PTCLDY    23  18  81 N9        29.69R WCI  13
AINSWORTH      CLEAR     23  18  78 NW23G29   29.66R WCI   8
ONEILL         CLOUDY    29  22  75 NW25G31   29.61R WCI  15
BROKEN BOW     PTCLDY    33  22  63 NW28G38   29.63S WCI  20
IMPERIAL       CLEAR     30  15  53 W16       29.76S WCI  19
NORTH PLATTE   CLEAR     31  19  61 NW15      29.70R WCI  20
MCCOOK         PTCLDY    35  19  52 W20G29    29.72F WCI  24

...EASTERN NEBRASKA...

CITY           SKY/WX    TMP DP  RH WIND       PRES   REMARKS
NORFOLK        CLOUDY    29  20  69 NW20G28   29.56R WCI  16
SO SIOUX CITY  CLOUDY    27  17  66 NW28G37   29.54R WCI  11
TEKAMAH        CLOUDY    30  20  66 NW21G31   29.56R WCI  17
COLUMBUS       CLOUDY    30  19  64 NW15      29.59S WCI  19
ALBION         CLOUDY    31  20  64 NW23G31   29.58S WCI  17
OMAHA EPPLEY   CLOUDY    31  20  63 NW24G30   29.56R WCI  17
OFFUTT AFB     CLOUDY    31  20  62 NW15G25   29.55R WCI  21
MILLARD        CLOUDY    32  20  61 NW17G28   29.55R WCI  21
LINCOLN        CLOUDY    33  20  58 NW23G31   29.60R WCI  21
NEBRASKA CITY  MOCLDY    31  21  66 NW12      29.55S WCI  22
BEATRICE       PTCLDY    31  22  68 NW16      29.61R WCI  20
FALLS CITY     CLOUDY    33  22  63 NW18      29.56R WCI  22

...NORTHERN KANSAS...

CITY           SKY/WX    TMP DP  RH WIND       PRES   REMARKS
GOODLAND       CLEAR     27  15  61 W20       29.81S WCI  13
HILL CITY      CLEAR     34  18  52 W16G24    29.74S WCI  24
NORTON         SUNNY     34  16  47 W22G32    29.69S WCI  22
PHILLIPSBURG   CLEAR     37  21  52 W14G24    29.71R WCI  29
SMITH CENTER   CLOUDY    34  19  55 W13       29.69S WCI  25
BELOIT         CLOUDY    36  25  64 W9        29.69R WCI  29
HAYS           CLEAR     30  12  47 W15       29.75R WCI  19
RUSSELL        CLEAR     31  20  63 W13       29.72R WCI  21
CONCORDIA      CLOUDY    37  25  61 W13       29.66R WCI  29
SALINA         CLEAR     39  23  52 W23       29.70R WCI  28
TOPEKA         CLEAR     37  25  61 W10       29.63R WCI  30



USA.gov is the U.S. government's official web portal to all federal, state and local government web resources and services.